Location: Innsbruck
(47.2657°N, 11.3914°E)
Time: 10:18:47
(UTC+01:00)

Envisat - Visible Passes

Search period start: 04 March 2024 00:00
Search period end: 14 March 2024 00:00
Orbit: 762 x 764 km, 98.3° (Epoch: 03 March)

Date Brightness Start Highest point End Pass type
(mag) Time Alt. Az. Time Alt. Az. Time Alt. Az.
04 Mar 5.1 02:51:03 10° NE 02:53:39 22° ENE 02:53:39 22° ENE visible
04 Mar 3.5 04:29:41 10° N 04:33:49 41° NW 04:33:49 41° NW visible
05 Mar 5.9 02:15:22 10° ENE 02:16:03 11° ENE 02:16:03 11° ENE visible
05 Mar 3.4 03:52:11 10° NNE 03:56:14 57° NNE 03:56:14 57° NNE visible
05 Mar 4.6 05:32:47 10° NNW 05:35:33 15° WNW 05:36:24 14° WNW visible
06 Mar 4.3 03:15:04 10° NNE 03:18:38 36° ENE 03:18:38 36° ENE visible
06 Mar 3.9 04:54:25 10° N 04:58:42 28° WNW 04:58:48 28° WNW visible
07 Mar 5.3 02:38:29 10° NE 02:41:03 19° ENE 02:41:03 19° ENE visible
07 Mar 3.2 04:16:40 10° N 04:21:13 54° NW 04:21:13 54° NW visible
08 Mar 3.4 03:39:18 10° NNE 03:43:38 61° NE 03:43:38 61° NE visible
08 Mar 4.4 05:19:24 10° NNW 05:22:49 18° WNW 05:23:48 18° WNW visible
09 Mar 4.6 03:02:19 10° NNE 03:06:01 32° ENE 03:06:01 32° ENE visible
09 Mar 3.6 04:41:19 10° N 04:45:54 35° WNW 04:46:12 35° WNW visible
10 Mar 5.5 02:26:05 10° NE 02:28:26 16° ENE 02:28:26 16° ENE visible
10 Mar 2.9 04:03:42 10° N 04:08:36 71° WNW 04:08:36 71° WNW visible
10 Mar 4.9 05:44:58 10° NNW 05:46:51 12° NW 05:48:43 10° WNW visible
11 Mar 3.6 03:26:26 10° NNE 03:31:00 54° E 03:31:00 54° E visible
11 Mar 4.2 05:06:09 10° N 05:10:03 23° WNW 05:11:11 21° W visible
12 Mar 4.8 02:49:38 10° NE 02:53:25 26° E 02:53:25 26° E visible
12 Mar 3.3 04:28:16 10° N 04:33:03 44° WNW 04:33:35 43° W visible
13 Mar 5.7 02:14:00 10° ENE 02:15:49 13° E 02:15:49 13° E visible
13 Mar 2.8 03:50:46 10° NNE 03:55:52 90° NE 03:56:00 86° SSW visible
13 Mar 4.7 05:31:19 10° NNW 05:34:07 15° NW 05:36:10 12° W visible
